Time,TemperatureF,DewpointF,PressureIn,WindDirection,WindDirectionDegrees,WindSpeedMPH,WindSpeedGustMPH,Humidity,HourlyPrecipIn,Conditions,Clouds,dailyrainin,SolarRadiationWatts/m^2,SoftwareType,DateUTC
2013-04-12 00:01:00,40.0,28.0,-100.00,WSW,243,2.0,8.0,63,0.00,,,0.00,1.000000,,2013-04-12 07:01:00,
2013-04-12 00:32:00,39.0,28.0,-100.00,NW,313,3.0,9.0,65,0.00,,,0.00,1.000000,,2013-04-12 07:32:00,
2013-04-12 00:42:00,39.0,28.0,-100.00,NW,313,3.0,9.0,65,0.00,,,0.00,1.000000,,2013-04-12 07:42:00,
2013-04-12 00:52:00,39.0,28.0,-100.00,NW,313,3.0,9.0,65,0.00,,,0.00,1.000000,,2013-04-12 07:52:00,
2013-04-12 01:03:00,39.0,28.0,-100.00,NW,313,3.0,9.0,65,0.00,,,0.00,1.000000,,2013-04-12 08:03:00,
2013-04-12 01:32:00,36.0,28.0,-100.00,SW,220,3.0,7.0,72,0.00,,,0.00,1.000000,,2013-04-12 08:32:00,
2013-04-12 01:42:00,36.0,28.0,-100.00,SW,220,3.0,7.0,72,0.00,,,0.00,1.000000,,2013-04-12 08:42:00,
2013-04-12 01:52:00,36.0,28.0,-100.00,SW,220,3.0,7.0,72,0.00,,,0.00,1.000000,,2013-04-12 08:52:00,
2013-04-12 02:02:00,36.0,28.0,-100.00,SW,220,3.0,7.0,72,0.00,,,0.00,1.000000,,2013-04-12 09:02:00,
2013-04-12 02:33:00,34.0,28.0,-100.00,SSW,196,3.0,7.0,77,0.00,,,0.00,1.000000,,2013-04-12 09:33:00,
2013-04-12 02:44:00,34.0,28.0,-100.00,SSW,196,3.0,7.0,77,0.00,,,0.00,1.000000,,2013-04-12 09:44:00,
2013-04-12 02:53:00,34.0,28.0,-100.00,SSW,196,3.0,7.0,77,0.00,,,0.00,1.000000,,2013-04-12 09:53:00,
2013-04-12 03:02:00,34.0,28.0,-100.00,SSW,196,3.0,7.0,77,0.00,,,0.00,1.000000,,2013-04-12 10:02:00,
2013-04-12 03:34:00,32.0,27.0,-100.00,West,259,3.0,6.0,80,0.00,,,0.00,1.000000,,2013-04-12 10:34:00,
2013-04-12 03:42:00,32.0,27.0,-100.00,West,259,3.0,6.0,80,0.00,,,0.00,1.000000,,2013-04-12 10:42:00,
2013-04-12 03:53:00,32.0,27.0,-100.00,West,259,3.0,6.0,80,0.00,,,0.00,1.000000,,2013-04-12 10:53:00,
2013-04-12 04:02:00,32.0,27.0,-100.00,West,259,3.0,6.0,80,0.00,,,0.00,1.000000,,2013-04-12 11:02:00,
2013-04-12 04:33:00,30.0,27.0,-100.00,WNW,294,1.0,4.0,87,0.00,,,0.00,1.000000,,2013-04-12 11:33:00,
2013-04-12 04:43:00,30.0,27.0,-100.00,WNW,294,1.0,4.0,87,0.00,,,0.00,1.000000,,2013-04-12 11:43:00,
2013-04-12 04:52:00,30.0,27.0,-100.00,WNW,294,1.0,4.0,87,0.00,,,0.00,1.000000,,2013-04-12 11:52:00,
2013-04-12 05:02:00,30.0,27.0,-100.00,WNW,294,1.0,4.0,87,0.00,,,0.00,1.000000,,2013-04-12 12:02:00,
2013-04-12 05:33:00,30.0,27.0,-100.00,WSW,241,1.0,3.0,88,0.00,,,0.00,1.000000,,2013-04-12 12:33:00,
2013-04-12 05:42:00,30.0,27.0,-100.00,WSW,241,1.0,3.0,88,0.00,,,0.00,1.000000,,2013-04-12 12:42:00,
2013-04-12 05:53:00,30.0,27.0,-100.00,WSW,241,1.0,3.0,88,0.00,,,0.00,1.000000,,2013-04-12 12:53:00,
2013-04-12 06:03:00,30.0,27.0,-100.00,WSW,241,1.0,3.0,88,0.00,,,0.00,1.000000,,2013-04-12 13:03:00,
2013-04-12 06:32:00,27.0,24.0,-100.00,SSW,204,1.0,3.0,89,0.00,,,0.00,1.000000,,2013-04-12 13:32:00,
2013-04-12 06:43:00,27.0,24.0,-100.00,SSW,204,1.0,3.0,89,0.00,,,0.00,1.000000,,2013-04-12 13:43:00,
2013-04-12 06:53:00,27.0,24.0,-100.00,SSW,204,1.0,3.0,89,0.00,,,0.00,1.000000,,2013-04-12 13:53:00,
2013-04-12 07:02:00,27.0,24.0,-100.00,SSW,204,1.0,3.0,89,0.00,,,0.00,1.000000,,2013-04-12 14:02:00,
2013-04-12 07:33:00,27.0,24.0,-100.00,South,181,0.0,3.0,90,0.00,,,0.00,16.000000,,2013-04-12 14:33:00,
2013-04-12 07:43:00,27.0,24.0,-100.00,South,181,0.0,3.0,90,0.00,,,0.00,16.000000,,2013-04-12 14:43:00,
2013-04-12 07:53:00,27.0,24.0,-100.00,South,181,0.0,3.0,90,0.00,,,0.00,16.000000,,2013-04-12 14:53:00,
2013-04-12 08:02:00,27.0,24.0,-100.00,South,181,0.0,3.0,90,0.00,,,0.00,16.000000,,2013-04-12 15:02:00,
2013-04-12 08:33:00,36.0,31.0,-100.00,SE,140,1.0,4.0,82,0.00,,,-99.99,172.000000,,2013-04-12 15:33:00,
2013-04-12 08:43:00,36.0,31.0,-100.00,SE,140,1.0,4.0,82,0.00,,,-99.99,172.000000,,2013-04-12 15:43:00,
2013-04-12 08:53:00,36.0,31.0,-100.00,SE,140,1.0,4.0,82,0.00,,,-99.99,172.000000,,2013-04-12 15:53:00,
2013-04-12 09:03:00,36.0,31.0,-100.00,SE,140,1.0,4.0,82,0.00,,,-99.99,172.000000,,2013-04-12 16:03:00,
2013-04-12 09:34:00,41.0,32.0,-100.00,NE,36,3.0,6.0,69,0.00,,,-99.99,334.000000,,2013-04-12 16:34:00,
2013-04-12 09:43:00,41.0,32.0,-100.00,NE,36,3.0,6.0,69,0.00,,,-99.99,334.000000,,2013-04-12 16:43:00,
2013-04-12 09:53:00,41.0,32.0,-100.00,NE,36,3.0,6.0,69,0.00,,,-99.99,334.000000,,2013-04-12 16:53:00,
2013-04-12 10:03:00,41.0,32.0,-100.00,NE,36,3.0,6.0,69,0.00,,,-99.99,334.000000,,2013-04-12 17:03:00,
2013-04-12 10:34:00,46.0,32.0,-100.00,ENE,78,3.0,6.0,57,0.00,,,0.00,479.000000,,2013-04-12 17:34:00,
2013-04-12 10:46:00,46.0,32.0,-100.00,ENE,78,3.0,6.0,57,0.00,,,0.00,479.000000,,2013-04-12 17:46:00,
2013-04-12 11:02:00,46.0,32.0,-100.00,ENE,78,3.0,6.0,57,0.00,,,0.00,479.000000,,2013-04-12 18:02:00,
2013-04-12 12:33:00,55.0,32.0,-100.00,NE,36,5.0,11.0,42,0.00,,,0.00,601.000000,,2013-04-12 19:33:00,
2013-04-12 12:43:00,55.0,32.0,-100.00,NE,36,5.0,11.0,42,0.00,,,0.00,601.000000,,2013-04-12 19:43:00,
2013-04-12 12:53:00,55.0,32.0,-100.00,NE,36,5.0,11.0,42,0.00,,,0.00,601.000000,,2013-04-12 19:53:00,
2013-04-12 13:02:00,55.0,32.0,-100.00,NE,36,5.0,11.0,42,0.00,,,0.00,601.000000,,2013-04-12 20:02:00,
2013-04-12 13:33:00,58.0,33.0,-100.00,NNE,23,4.0,9.0,38,0.00,,,0.00,490.000000,,2013-04-12 20:33:00,
2013-04-12 13:43:00,58.0,33.0,-100.00,NNE,23,4.0,9.0,38,0.00,,,0.00,490.000000,,2013-04-12 20:43:00,
2013-04-12 13:52:00,58.0,33.0,-100.00,NNE,23,4.0,9.0,38,0.00,,,0.00,490.000000,,2013-04-12 20:52:00,
2013-04-12 14:02:00,58.0,33.0,-100.00,NNE,23,4.0,9.0,38,0.00,,,0.00,490.000000,,2013-04-12 21:02:00,
2013-04-12 14:33:00,61.0,32.0,-100.00,ENE,60,4.0,7.0,34,0.00,,,0.00,386.000000,,2013-04-12 21:33:00,
2013-04-12 14:43:00,61.0,32.0,-100.00,ENE,60,4.0,7.0,34,0.00,,,0.00,386.000000,,2013-04-12 21:43:00,
2013-04-12 14:52:00,61.0,32.0,-100.00,ENE,60,4.0,7.0,34,0.00,,,0.00,386.000000,,2013-04-12 21:52:00,
2013-04-12 15:02:00,61.0,32.0,-100.00,ENE,60,4.0,7.0,34,0.00,,,0.00,386.000000,,2013-04-12 22:02:00,
2013-04-12 15:33:00,66.0,34.0,-100.00,South,172,4.0,7.0,30,0.00,,,0.00,469.000000,,2013-04-12 22:33:00,
2013-04-12 15:43:00,66.0,34.0,-100.00,South,172,4.0,7.0,30,0.00,,,0.00,469.000000,,2013-04-12 22:43:00,
2013-04-12 15:52:00,66.0,34.0,-100.00,South,172,4.0,7.0,30,0.00,,,0.00,469.000000,,2013-04-12 22:52:00,
2013-04-12 16:03:00,66.0,34.0,-100.00,South,172,4.0,7.0,30,0.00,,,0.00,469.000000,,2013-04-12 23:03:00,
2013-04-12 16:32:00,64.0,23.0,-100.00,WSW,244,12.0,22.0,21,0.00,,,0.00,263.000000,,2013-04-12 23:32:00,
2013-04-12 16:42:00,64.0,23.0,-100.00,WSW,244,12.0,22.0,21,0.00,,,0.00,263.000000,,2013-04-12 23:42:00,
2013-04-12 16:52:00,64.0,23.0,-100.00,WSW,244,12.0,22.0,21,0.00,,,0.00,263.000000,,2013-04-12 23:52:00,
2013-04-12 17:01:00,64.0,23.0,-100.00,WSW,244,12.0,22.0,21,0.00,,,0.00,263.000000,,2013-04-13 00:01:00,
2013-04-12 17:32:00,62.0,25.0,-100.00,WSW,244,10.0,18.0,24,0.00,,,-99.99,162.000000,,2013-04-13 00:32:00,
2013-04-12 17:42:00,62.0,25.0,-100.00,WSW,244,10.0,18.0,24,0.00,,,-99.99,162.000000,,2013-04-13 00:42:00,
2013-04-12 17:52:00,62.0,25.0,-100.00,WSW,244,10.0,18.0,24,0.00,,,-99.99,162.000000,,2013-04-13 00:52:00,
2013-04-12 18:02:00,62.0,25.0,-100.00,WSW,244,10.0,18.0,24,0.00,,,-99.99,162.000000,,2013-04-13 01:02:00,
2013-04-12 18:33:00,60.0,26.0,-100.00,WSW,252,7.0,18.0,27,0.00,,,0.00,87.000000,,2013-04-13 01:33:00,
2013-04-12 18:43:00,60.0,26.0,-100.00,WSW,252,7.0,18.0,27,0.00,,,0.00,87.000000,,2013-04-13 01:43:00,
2013-04-12 18:52:00,60.0,26.0,-100.00,WSW,252,7.0,18.0,27,0.00,,,0.00,87.000000,,2013-04-13 01:52:00,
2013-04-12 19:02:00,60.0,26.0,-100.00,WSW,252,7.0,18.0,27,0.00,,,0.00,87.000000,,2013-04-13 02:02:00,
2013-04-12 19:33:00,58.0,29.0,-100.00,WSW,251,4.0,9.0,33,0.00,,,0.00,38.000000,,2013-04-13 02:33:00,
2013-04-12 19:43:00,58.0,29.0,-100.00,WSW,251,4.0,9.0,33,0.00,,,0.00,38.000000,,2013-04-13 02:43:00,
2013-04-12 19:53:00,58.0,29.0,-100.00,WSW,251,4.0,9.0,33,0.00,,,0.00,38.000000,,2013-04-13 02:53:00,
2013-04-12 20:02:00,58.0,29.0,-100.00,WSW,251,4.0,9.0,33,0.00,,,0.00,38.000000,,2013-04-13 03:02:00,
2013-04-12 20:33:00,55.0,32.0,-100.00,SW,235,9.0,13.0,41,0.00,,,0.00,8.000000,,2013-04-13 03:33:00,
2013-04-12 20:43:00,55.0,32.0,-100.00,SW,235,9.0,13.0,41,0.00,,,0.00,8.000000,,2013-04-13 03:43:00,
2013-04-12 20:53:00,55.0,32.0,-100.00,SW,235,9.0,13.0,41,0.00,,,0.00,8.000000,,2013-04-13 03:53:00,
2013-04-12 21:02:00,55.0,32.0,-100.00,SW,235,9.0,13.0,41,0.00,,,0.00,8.000000,,2013-04-13 04:02:00,
2013-04-12 21:33:00,53.0,34.0,-100.00,SW,222,4.0,17.0,48,0.00,,,0.00,1.000000,,2013-04-13 04:33:00,
2013-04-12 21:42:00,53.0,34.0,-100.00,SW,222,4.0,17.0,48,0.00,,,0.00,1.000000,,2013-04-13 04:42:00,
2013-04-12 21:53:00,53.0,34.0,-100.00,SW,222,4.0,17.0,48,0.00,,,0.00,1.000000,,2013-04-13 04:53:00,
2013-04-12 22:02:00,53.0,34.0,-100.00,SW,222,4.0,17.0,48,0.00,,,0.00,1.000000,,2013-04-13 05:02:00,
2013-04-12 22:32:00,53.0,34.0,-100.00,WSW,237,11.0,17.0,49,0.00,,,0.00,1.000000,,2013-04-13 05:32:00,
2013-04-12 22:43:00,53.0,34.0,-100.00,WSW,237,11.0,17.0,49,0.00,,,0.00,1.000000,,2013-04-13 05:43:00,
2013-04-12 22:52:00,53.0,34.0,-100.00,WSW,237,11.0,17.0,49,0.00,,,0.00,1.000000,,2013-04-13 05:52:00,
2013-04-12 23:02:00,53.0,34.0,-100.00,WSW,237,11.0,17.0,49,0.00,,,0.00,1.000000,,2013-04-13 06:02:00,
2013-04-12 23:36:00,51.0,33.0,-100.00,SW,232,4.0,15.0,49,0.00,,,0.00,1.000000,,2013-04-13 06:36:00,
2013-04-12 23:49:00,51.0,33.0,-100.00,SW,232,4.0,15.0,49,0.00,,,0.00,1.000000,,2013-04-13 06:49:00,
2013-04-12 23:54:00,51.0,33.0,-100.00,SW,232,4.0,15.0,49,0.00,,,0.00,1.000000,,2013-04-13 06:54:00,